Regional Weather Roundup
Issued by NWS Cleveland, OH

Home | Current Version | Previous Version | Text Only | Print | Product List | Glossary On
Versions: 1 2 3 4 5 6 7 8 9 10 11 12 13 14 15 16 17 18 19 20 21 22 23 24 25 26 27 28 29 30 31 32 33 34 35 36 37 38 39 40 41 42 43 44 45 46 47 48 49 50
000
ASUS41 KCLE 110112
RWRCLE
OHIO REGIONAL WEATHER ROUNDUP
NATIONAL WEATHER SERVICE WILMINGTON, OH
800 PM EST SAT DEC 10 2016

NOTE: "FAIR" INDICATES FEW OR NO CLOUDS BELOW 12,000 FEET WITH NO
SIGNIFICANT WEATHER AND/OR OBSTRUCTIONS TO VISIBILITY.

OHZ001>008-015>018-024>027-034-035-043-044-110200-
   NORTHWEST OHIO

CITY           SKY/WX    TMP DP  RH WIND       PRES   REMARKS
DEFIANCE       CLOUDY    26  16  65 S3        30.44S
FINDLAY        CLOUDY    26  16  65 S6        30.43F WCI  19
TOLEDO EXPRESS MOCLDY    24  17  74 SW7       30.43S WCI  16
TOLEDO EXEC    FAIR      26  17  68 SW7       30.44F WCI  18
LIMA           CLOUDY    24  17  74 S3        30.42F
$$

OHZ009>014-019>023-028>033-038-089-110200-
   NORTHEAST OHIO

CITY           SKY/WX    TMP DP  RH WIND       PRES   REMARKS
CLE-HOPKINS    MOCLDY    26  14  60 SW7       30.46F WCI  18
CLE-LAKEFRONT  CLOUDY    25  15  66 SW10      30.45F WCI  15
CUY CO. ARPT   CLOUDY    27  16  63 SW14      30.43F WCI  15
LORAIN-ELYRIA  FAIR      24  14  65 SW9       30.44F WCI  14
ASHTABULA      CLOUDY    23  14  68 SW12      30.42S WCI  12
AKRON-CANTON   CLOUDY    24  14  65 SW8       30.43F WCI  15
WOOSTER        CLOUDY    23  15  71 SW6       30.44F WCI  16
MANSFIELD      CLOUDY    23  16  74 S7        30.41F WCI  15
YOUNGSTOWN     FLURRIES  24  13  62 W10       30.42F WCI  14
$$

OHZ042-051>053-060>062-070>072-077>081-110200-
  SOUTHWEST OHIO

CITY           SKY/WX    TMP DP  RH WIND       PRES   REMARKS
CINC-COVINGTON CLOUDY    28  17  63 SE5       30.44S WCI  23
CINC-LUNKEN    CLOUDY    29  20  69 SW3       30.49S
HAMILTON       CLOUDY    30  18  60 CALM      30.48R
DAYTON         CLOUDY    26  16  65 S6        30.44S WCI  19
WRIGHT-PAT AFB FAIR      27  17  65 S5        30.45S WCI  21
DAYTON GENERAL CLOUDY    26  17  68 S6        30.44S WCI  19
WILMINGTON     CLOUDY    26  18  71 S6        30.43F WCI  19
$$

OHZ036-037-039>041-045>050-054>059-063>069-073>076-082>088-110200-
  CENTRAL AND SOUTHEAST OHIO

CITY           SKY/WX    TMP DP  RH WIND       PRES   REMARKS
COLUMBUS       CLOUDY    27  17  66 CALM      30.46F
OSU AIRPORT    CLOUDY    26  16  65 S3        30.44F
BOLTON FIELD   CLOUDY    25  18  73 CALM      30.45F
RICKENBACK AFB   N/A     26  18  73 CALM      30.46F
NEWARK         CLOUDY    24  17  74 CALM      30.46S
MARION         CLOUDY    24  17  74 S5        30.43F WCI  18
LANCASTER      CLOUDY    24  20  84 CALM      30.46F
ZANESVILLE     CLOUDY    25  16  68 CALM      30.47S
NEW PHILLY     CLOUDY    25  18  74 S3        30.47F
$$



USA.gov is the U.S. government's official web portal to all federal, state and local government web resources and services.